GW6284 Weather Reports


time (UTC)temp
F
wind
direction
speed
knots
gust
knots
rain 1hr
in
rain 24hr
in
rain mn
in
humidity
%
barometer
mb
20260505214206 75 121 11.3 13.9 0.00 0.00 0.00 61 348.0
20260505213703 75 130 13.0 13.0 0.00 0.00 0.00 63 348.0
20260505213200 75 127 12.2 13.9 0.00 0.00 0.00 61 347.9
20260505212656 75 127 11.3 13.0 0.00 0.00 0.00 63 348.0
20260505212153 75 125 10.4 13.9 0.00 0.00 0.00 61 348.1
20260505211650 75 115 11.3 13.0 0.00 0.00 0.00 61 348.0
20260505211147 75 120 13.0 13.9 0.00 0.00 0.00 62 348.0
20260505210644 75 120 13.0 13.9 0.00 0.00 0.00 61 348.0
20260505210141 75 123 11.3 13.0 0.00 0.00 0.00 62 348.0
20260505205638 75 111 13.0 13.9 0.00 0.00 0.00 58 347.9
20260505205136 75 108 13.0 13.0 0.00 0.00 0.00 58 347.9
20260505204633 75 113 12.2 13.9 0.00 0.00 0.00 57 347.9
20260505204131 75 111 13.0 14.8 0.00 0.00 0.00 58 347.9
20260505203627 75 112 12.2 13.9 0.00 0.00 0.00 58 347.9
20260505203124 75 116 11.3 13.0 0.00 0.00 0.00 62 348.0
20260505202620 75 117 12.2 13.9 0.00 0.00 0.00 63 348.1
20260505202116 75 119 12.2 14.8 0.00 0.00 0.00 63 347.9
20260505201613 75 118 10.4 13.9 0.00 0.00 0.00 65 347.8
20260505201111 75 125 12.2 13.0 0.00 0.00 0.00 64 348.0
20260505200609 75 117 13.0 13.9 0.00 0.00 0.00 64 348.0
20260505200105 75 116 11.3 13.0 0.00 0.00 0.00 63 347.9
20260505195601 75 116 12.2 14.8 0.00 0.00 0.00 63 347.9
20260505195059 75 120 12.2 13.0 0.00 0.00 0.00 63 347.8
20260505194556 75 120 10.4 13.9 0.00 0.00 0.00 64 347.9
20260505194051 75 118 11.3 12.2 0.00 0.00 0.00 65 347.9
20260505193549 75 115 9.6 12.2 0.00 0.00 0.00 63 347.9
20260505193046 75 108 12.2 13.0 0.00 0.00 0.00 64 347.8
20260505192545 75 109 12.2 13.0 0.00 0.00 0.00 65 347.8
20260505192042 75 114 10.4 12.2 0.00 0.00 0.00 64 347.9
20260505191540 75 112 11.3 13.0 0.00 0.00 0.00 62 347.8
20260505191037 75 120 9.6 12.2 0.00 0.00 0.00 63 347.9
20260505190532 75 123 11.3 12.2 0.00 0.00 0.00 64 348.0
20260505190028 75 115 12.2 13.0 0.00 0.00 0.00 64 347.9
20260505185525 75 117 11.3 13.0 0.00 0.00 0.00 64 347.9
20260505185021 75 111 11.3 12.2 0.00 0.00 0.00 65 347.8
20260505184518 75 110 9.6 12.2 0.00 0.00 0.00 66 347.8
20260505184015 75 105 11.3 12.2 0.00 0.00 0.00 62 347.7
20260505183512 75 117 11.3 13.0 0.00 0.00 0.00 63 347.8
20260505183009 75 107 11.3 13.0 0.00 0.00 0.00 62 347.8
20260505182506 75 101 10.4 12.2 0.00 0.00 0.00 63 347.8
20260505182002 75 109 10.4 13.0 0.00 0.00 0.00 64 347.8
20260505181459 75 109 11.3 13.0 0.00 0.00 0.00 64 347.7
20260505180956 75 112 9.6 11.3 0.00 0.00 0.00 65 348.0
20260505180452 75 106 10.4 12.2 0.00 0.00 0.00 65 347.9
20260505175949 75 106 11.3 12.2 0.00 0.00 0.00 65 348.0
20260505175445 75 114 9.6 10.4 0.00 0.00 0.00 67 347.8
20260505174942 75 98 9.6 11.3 0.00 0.00 0.00 65 347.7
20260505174439 74 111 11.3 12.2 0.00 0.00 0.00 64 347.8
20260505173935 74 108 9.6 11.3 0.00 0.00 0.00 64 347.8
20260505173432 74 105 11.3 12.2 0.00 0.00 0.00 65 347.8
20260505172929 74 103 10.4 11.3 0.00 0.00 0.00 64 347.8
20260505172427 75 97 12.2 13.0 0.00 0.00 0.00 64 347.9
20260505171926 75 105 10.4 12.2 0.00 0.00 0.00 61 347.9
20260505171424 75 108 11.3 13.0 0.00 0.00 0.00 63 347.7
20260505170920 75 117 9.6 10.4 0.00 0.00 0.00 62 347.9
20260505170417 75 107 12.2 12.2 0.00 0.00 0.00 62 347.9
20260505165912 75 114 8.7 11.3 0.00 0.00 0.00 63 347.7
20260505165408 75 111 9.6 11.3 0.00 0.00 0.00 62 347.9
20260505164903 75 119 9.6 12.2 0.00 0.00 0.00 63 347.8
20260505164400 75 110 10.4 11.3 0.00 0.00 0.00 65 347.8
20260505163859 75 110 10.4 12.2 0.00 0.00 0.00 65 347.8
20260505163358 74 100 9.6 10.4 0.00 0.00 0.00 64 347.8
20260505162855 75 110 11.3 12.2 0.00 0.00 0.00 65 347.9
20260505162351 75 115 8.7 10.4 0.00 0.00 0.00 64 347.9
20260505161848 75 111 10.4 11.3 0.00 0.00 0.00 64 347.9
20260505161345 75 110 9.6 10.4 0.00 0.00 0.00 63 347.8
20260505160843 74 115 9.6 10.4 0.00 0.00 0.00 65 347.9
20260505160341 75 117 8.7 10.4 0.00 0.00 0.00 64 347.8
20260505153320 75 113 8.7 10.4 0.00 0.00 0.00 66 347.9
20260505152817 75 110 9.6 10.4 0.00 0.00 0.00 65 347.9
20260505152314 75 119 8.7 9.6 0.00 0.00 0.00 65 347.7
20260505151814 75 116 8.7 10.4 0.00 0.00 0.00 64 347.9
20260505151311 75 110 7.8 9.6 0.00 0.00 0.00 65 348.0
20260505150808 75 108 8.7 9.6 0.00 0.00 0.00 64 348.1
20260505150305 75 120 8.7 10.4 0.00 0.00 0.00 64 347.9
20260505140234 75 124 8.7 10.4 0.00 0.00 0.00 63 347.9
20260505130158 74 125 8.7 9.6 0.00 0.00 0.00 65 348.2
20260505124648 74 119 7.8 9.6 0.00 0.00 0.00 65 348.0
20260505124145 74 124 8.7 10.4 0.00 0.00 0.00 65 348.1
20260505123641 74 130 9.6 10.4 0.00 0.00 0.00 67 348.1
20260505123138 74 127 9.6 11.3 0.00 0.00 0.00 66 348.2
20260505122634 74 118 9.6 9.6 0.00 0.00 0.00 66 348.2
20260505122132 73 134 9.6 10.4 0.00 0.00 0.00 67 348.3
20260505121628 73 125 9.6 11.3 0.00 0.00 0.00 67 348.2
20260505121125 73 135 9.6 10.4 0.00 0.00 0.00 66 348.1
20260505120621 73 127 9.6 11.3 0.00 0.00 0.00 66 348.2
20260505120117 73 133 9.6 10.4 0.00 0.00 0.00 67 348.1
20260505115612 73 126 9.6 10.4 0.00 0.00 0.00 67 348.2
20260505115109 73 119 8.7 10.4 0.00 0.00 0.00 66 348.2
20260505114606 73 127 9.6 12.2 0.00 0.00 0.00 67 348.2
20260505114103 73 118 9.6 11.3 0.00 0.00 0.00 67 348.2
20260505113559 73 127 9.6 11.3 0.00 0.00 0.00 67 348.1
20260505113056 73 122 9.6 11.3 0.00 0.00 0.00 67 348.3
20260505112552 73 122 9.6 11.3 0.00 0.00 0.00 68 348.3
20260505112051 72 132 7.0 10.4 0.00 0.00 0.00 69 348.3
20260505111549 72 133 7.8 11.3 0.00 0.00 0.00 69 348.2
20260505111046 72 123 9.6 12.2 0.00 0.00 0.00 69 348.4
20260505110542 72 122 11.3 12.2 0.00 0.00 0.00 69 348.3
20260505102015 72 127 10.4 12.2 0.00 0.00 0.00 70 348.4
20260505101513 72 135 12.2 13.0 0.00 0.00 0.00 70 348.3
20260505101009 72 134 9.6 11.3 0.00 0.00 0.00 70 348.3
20260505100506 72 128 10.4 12.2 0.00 0.00 0.00 70 348.3
20260505100003 72 126 12.2 12.2 0.00 0.00 0.00 70 348.3
20260505095459 72 128 10.4 13.0 0.00 0.00 0.00 70 348.2
20260505094955 72 129 12.2 13.0 0.00 0.00 0.00 70 348.3
20260505094453 72 130 10.4 13.0 0.00 0.00 0.00 70 348.3
20260505093949 72 125 7.8 12.2 0.00 0.00 0.00 70 348.4
20260505093445 72 123 12.2 13.0 0.00 0.00 0.00 69 348.3
20260505092942 72 124 11.3 13.0 0.00 0.00 0.00 70 348.4
20260505092440 72 133 12.2 13.9 0.00 0.00 0.00 70 348.5
20260505091938 72 138 12.2 13.0 0.00 0.00 0.00 70 348.3
20260505091435 72 138 10.4 11.3 0.00 0.00 0.00 70 348.3
20260505090933 72 140 11.3 13.9 0.00 0.00 0.00 69 348.2
20260505090431 72 139 9.6 13.0 0.00 0.00 0.00 69 348.2
20260505085928 72 131 9.6 13.0 0.00 0.00 0.00 69 348.4
20260505085426 72 131 11.3 13.9 0.00 0.00 0.00 69 348.3
20260505084924 72 139 9.6 10.4 0.00 0.00 0.00 69 348.3
20260505084422 72 121 7.0 12.2 0.00 0.00 0.00 68 348.2
20260505083919 72 129 6.1 9.6 0.00 0.00 0.00 68 348.3
20260505083417 72 140 7.8 11.3 0.00 0.00 0.00 69 348.4
20260505082913 72 142 9.6 11.3 0.00 0.00 0.00 69 348.2
20260505082408 72 130 12.2 12.2 0.00 0.00 0.00 69 348.3
20260505081906 72 124 11.3 12.2 0.00 0.00 0.00 68 348.3
20260505081402 72 129 7.8 13.0 0.00 0.00 0.00 67 348.3
20260505080859 72 134 9.6 12.2 0.00 0.00 0.00 68 348.2
20260505080355 72 126 9.6 11.3 0.00 0.00 0.00 68 348.3
20260505075851 72 126 11.3 12.2 0.00 0.00 0.00 67 348.2
20260505075348 72 132 9.6 12.2 0.00 0.00 0.00 68 348.2
20260505074845 72 136 8.7 11.3 0.00 0.00 0.00 68 348.3
20260505074342 72 133 12.2 13.0 0.00 0.00 0.00 68 348.3
20260505073839 72 123 7.0 12.2 0.00 0.00 0.00 68 348.4
20260505073337 72 124 11.3 12.2 0.00 0.00 0.00 69 348.3
20260505072834 72 122 6.1 10.4 0.00 0.00 0.00 68 348.3
20260505072330 72 134 7.0 10.4 0.00 0.00 0.00 69 348.2
20260505071826 72 131 9.6 13.0 0.00 0.00 0.00 68 348.4
20260505071323 72 128 7.0 11.3 0.00 0.00 0.00 68 348.3
20260505070821 72 124 7.8 13.9 0.00 0.00 0.00 69 348.2
20260505070318 72 135 12.2 13.0 0.00 0.00 0.00 69 348.4
20260505065812 72 137 12.2 14.8 0.00 0.00 0.00 69 348.3
20260505065309 72 147 11.3 13.9 0.00 0.00 0.00 68 348.2
20260505064807 72 139 9.6 13.9 0.00 0.00 0.00 69 348.4
20260505064303 72 132 11.3 13.0 0.00 0.00 0.00 69 348.3
20260505063801 72 133 12.2 14.8 0.00 0.00 0.00 69 348.4
20260505063257 72 138 13.0 14.8 0.00 0.00 0.00 68 348.2
20260505062754 72 130 12.2 13.9 0.00 0.00 0.00 68 348.3
20260505062252 72 140 12.2 14.8 0.00 0.00 0.00 69 348.2
20260505061748 72 136 8.7 15.6 0.00 0.00 0.00 69 348.2
20260505061246 72 138 11.3 14.8 0.00 0.00 0.00 69 348.3
20260505060743 72 136 9.6 14.8 0.00 0.00 0.00 69 348.3
20260505060241 72 134 12.2 13.0 0.00 0.00 0.00 69 348.4
20260505055736 72 136 13.0 15.6 0.00 0.00 0.00 69 348.3
20260505055232 72 126 13.9 16.5 0.00 0.00 0.00 69 348.4
20260505054730 72 128 13.0 14.8 0.00 0.00 0.00 70 348.2
20260505054227 73 137 9.6 15.6 0.00 0.00 0.00 70 348.4
20260505053726 72 140 13.0 15.6 0.00 0.00 0.00 69 348.3
20260505053222 73 137 13.0 15.6 0.00 0.00 0.00 69 348.3
20260505052719 73 139 13.9 17.4 0.00 0.00 0.00 68 348.3
20260505052215 73 137 14.8 16.5 0.00 0.00 0.00 68 348.3
20260505051713 73 133 11.3 16.5 0.00 0.00 0.00 69 348.3
20260505051211 73 132 14.8 16.5 0.00 0.00 0.00 67 348.3
20260505050709 73 131 14.8 16.5 0.00 0.00 0.00 68 348.2
20260505050207 73 128 14.8 16.5 0.00 0.00 0.00 68 348.3
20260505041637 73 148 11.3 14.8 0.00 0.00 0.00 67 348.4
20260505041134 73 136 13.0 14.8 0.00 0.00 0.00 67 348.2
20260505040631 72 142 11.3 13.9 0.00 0.00 0.00 68 348.3
20260505040128 73 140 14.8 18.2 0.00 0.00 0.00 68 348.2
20260505035624 73 141 13.0 17.4 0.00 0.00 0.00 69 348.5
20260505035120 73 135 14.8 16.5 0.00 0.00 0.00 69 348.4
20260505034617 72 134 14.8 18.2 0.00 0.00 0.00 68 348.2
20260505034114 73 129 15.6 16.5 0.00 0.00 0.00 68 348.3
20260505033611 73 125 16.5 16.5 0.00 0.00 0.00 67 348.4
20260505033110 73 130 14.8 18.2 0.00 0.00 0.00 67 348.1
20260505032607 72 127 13.0 16.5 0.00 0.00 0.00 68 348.3
20260505032103 73 126 14.8 16.5 0.00 0.00 0.00 68 348.3
20260505031601 72 128 14.8 17.4 0.00 0.00 0.00 67 348.5
20260505031056 73 128 15.6 18.2 0.00 0.00 0.00 67 348.4
20260505030554 72 126 15.6 18.2 0.00 0.00 0.00 67 348.5
20260505030049 72 125 15.6 17.4 0.00 0.00 0.00 67 348.3
20260505025545 72 128 15.6 18.2 0.00 0.00 0.00 68 348.2
20260505025045 73 128 14.8 17.4 0.00 0.00 0.00 68 348.3
20260505024541 72 127 15.6 18.2 0.00 0.00 0.00 67 348.3
20260505024038 72 124 15.6 17.4 0.00 0.00 0.00 67 348.2
20260505023535 72 128 15.6 17.4 0.00 0.00 0.00 67 348.2
20260505023033 73 120 16.5 16.5 0.00 0.00 0.00 67 348.3
20260505022530 72 122 14.8 16.5 0.00 0.00 0.00 67 348.2
20260505022027 72 125 14.8 18.2 0.00 0.00 0.00 67 348.2
20260505021524 72 128 14.8 19.1 0.00 0.00 0.00 68 348.3
20260505021021 72 124 15.6 16.5 0.00 0.00 0.00 68 348.3
20260505020520 72 121 16.5 16.5 0.00 0.00 0.00 68 348.2
20260505020018 72 126 15.6 17.4 0.00 0.00 0.00 68 348.3
20260505015515 72 123 15.6 18.2 0.00 0.00 0.00 67 348.5
20260505015012 72 128 15.6 15.6 0.00 0.00 0.00 69 348.2
20260505014509 72 120 16.5 18.2 0.00 0.00 0.00 69 348.2
20260505014006 72 119 14.8 18.2 0.00 0.00 0.00 68 348.3
20260505013503 72 120 14.8 16.5 0.00 0.00 0.00 68 348.3
20260505013000 72 121 14.8 18.2 0.00 0.00 0.00 68 348.2
20260505012458 72 115 14.8 17.4 0.00 0.00 0.00 69 348.2
20260505011955 72 118 16.5 16.5 0.00 0.00 0.00 68 348.2
20260505011450 72 129 14.8 17.4 0.00 0.00 0.00 68 348.2
20260505010947 72 123 14.8 17.4 0.00 0.00 0.00 68 348.3
20260505010443 72 123 14.8 17.4 0.00 0.00 0.00 67 348.1
20260505005939 73 121 15.6 18.2 0.00 0.00 0.00 68 348.2
20260505005436 72 123 16.5 19.1 0.00 0.00 0.00 67 348.0
20260505004934 72 123 13.0 15.6 0.00 0.00 0.00 65 348.2
20260505004430 72 118 14.8 18.2 0.00 0.00 0.00 67 348.2
20260505003927 72 126 14.8 16.5 0.00 0.00 0.00 67 348.2
20260505003425 73 116 17.4 18.2 0.00 0.00 0.00 66 348.3
20260505002921 73 116 14.8 16.5 0.00 0.00 0.00 65 348.3
20260505002417 73 136 14.8 16.5 0.00 0.00 0.00 65 348.2
20260505001916 73 126 14.8 18.2 0.00 0.00 0.00 66 348.2
20260505001413 73 118 14.8 15.6 0.00 0.00 0.00 66 348.3
20260505000910 73 123 13.9 16.5 0.00 0.00 0.00 67 348.2
20260505000408 73 123 13.9 15.6 0.00 0.00 0.00 66 348.2
20260504235904 72 125 14.8 16.5 0.00 0.00 0.00 65 348.2
20260504235401 73 127 14.8 15.6 0.00 0.00 0.00 67 348.3
20260504234857 73 119 14.8 16.5 0.00 0.00 0.00 67 348.3
20260504234355 73 129 15.6 18.2 0.00 0.00 0.00 66 348.3
20260504233852 73 127 14.8 15.6 0.00 0.00 0.00 66 348.2
20260504233347 73 122 14.8 17.4 0.00 0.00 0.00 65 348.3
20260504232844 73 128 13.9 18.2 0.00 0.00 0.00 65 348.1
20260504232341 73 131 14.8 16.5 0.00 0.00 0.00 66 348.1
20260504231838 73 131 13.9 16.5 0.00 0.00 0.00 65 348.2
20260504231334 73 131 14.8 17.4 0.00 0.00 0.00 65 348.2
20260504230831 73 134 15.6 16.5 0.00 0.00 0.00 64 348.1
20260504230329 73 128 14.8 16.5 0.00 0.00 0.00 64 348.3
20260504225827 73 125 14.8 18.2 0.00 0.00 0.00 64 348.2
20260504225323 73 122 13.9 16.5 0.00 0.00 0.00 64 348.1
20260504224821 73 126 13.0 14.8 0.00 0.00 0.00 63 348.1
20260504224318 73 127 13.9 18.2 0.00 0.00 0.00 64 348.0
20260504223814 73 126 14.8 14.8 0.00 0.00 0.00 64 348.3
20260504223310 73 131 13.9 16.5 0.00 0.00 0.00 65 348.3
20260504222807 73 131 14.8 16.5 0.00 0.00 0.00 64 348.1
20260504222305 73 131 13.0 16.5 0.00 0.00 0.00 64 348.1
20260504221802 73 121 15.6 17.4 0.00 0.00 0.00 64 348.1
20260504221258 73 136 16.5 18.2 0.00 0.00 0.00 65 348.1
20260504220755 73 129 14.8 16.5 0.00 0.00 0.00 65 348.1
20260504220252 73 131 13.9 16.5 0.00 0.00 0.00 66 348.1
20260504215749 73 129 12.2 18.2 0.00 0.00 0.00 65 348.4
20260504215246 73 138 14.8 16.5 0.00 0.00 0.00 66 348.1
20260504214741 73 125 14.8 16.5 0.00 0.00 0.00 64 348.2